When you browse on this site, cookies collect data to enhance your experience and personalize the content and advertising you see.
Visit our Privacy Policy to learn more. By continuing to use the site, you agree to this use of cookies and data.
  • In Romania
  • List of Countries
  • For 7 days
  • Water Temperature
  • Weather Map
  • Weather Widgets
  • user-avatar
    Login

    Hourly Weather Trujillo

    Today, 12 December, Thursday

    Time Temperature Precipitation Wind Pressure Humidity
    00:00 +18°C° 0 mm 1 mps 646 mmHg 95%
    01:00 +16°C° 0 mm 1 mps 645 mmHg 96%
    02:00 +16°C° 0 mm 1 mps 645 mmHg 95%
    03:00 +16°C° 0 mm 1 mps 645 mmHg 95%
    04:00 +16°C° 0 mm 1 mps 645 mmHg 94%
    05:00 +16°C° 0 mm 1 mps 646 mmHg 93%
    06:00 +18°C° 0 mm 1 mps 646 mmHg 91%
    07:00 +17°C° 0 mm 0 mps 647 mmHg 88%
    08:00 +21°C° 0 mm 1 mps 647 mmHg 80%
    09:00 +23°C° 0 mm 1 mps 648 mmHg 72%
    10:00 +25°C° 0 mm 1 mps 649 mmHg 64%
    11:00 +24°C° 0.2 mm 1 mps 648 mmHg 68%
    12:00 +24°C° 0.2 mm 1 mps 647 mmHg 72%
    13:00 +23°C° 0.2 mm 1 mps 646 mmHg 76%
    14:00 +22°C° 0.3 mm 1 mps 645 mmHg 80%
    15:00 +22°C° 0.3 mm 1 mps 645 mmHg 84%
    16:00 +21°C° 0.3 mm 1 mps 644 mmHg 89%
    17:00 +20°C° 0.1 mm 1 mps 644 mmHg 90%
    18:00 +19°C° 0.1 mm 1 mps 644 mmHg 92%
    19:00 +18°C° 0.1 mm 1 mps 644 mmHg 94%
    20:00 +18°C° 0 mm 1 mps 645 mmHg 93%
    21:00 +18°C° 0 mm 1 mps 645 mmHg 92%
    22:00 +16°C° 0 mm 1 mps 646 mmHg 91%
    23:00 +16°C° 0 mm 1 mps 645 mmHg 90%

    Tomorrow, 13 December, Friday

    Time Temperature Precipitation Wind Pressure Humidity
    00:00 +16°C° 0 mm 1 mps 645 mmHg 89%
    01:00 +16°C° 0 mm 1 mps 645 mmHg 88%
    02:00 +16°C° 0 mm 1 mps 644 mmHg 88%
    03:00 +15°C° 0 mm 1 mps 644 mmHg 87%
    04:00 +15°C° 0 mm 1 mps 644 mmHg 86%
    05:00 +16°C° 0 mm 1 mps 645 mmHg 84%
    06:00 +18°C° 0 mm 1 mps 645 mmHg 82%
    07:00 +17°C° 0 mm 0 mps 646 mmHg 80%
    08:00 +21°C° 0 mm 1 mps 647 mmHg 75%
    09:00 +22°C° 0 mm 1 mps 647 mmHg 69%
    10:00 +24°C° 0 mm 1 mps 648 mmHg 64%
    11:00 +24°C° 0.1 mm 1 mps 647 mmHg 69%
    12:00 +23°C° 0.1 mm 1 mps 646 mmHg 75%
    13:00 +23°C° 0.1 mm 1 mps 645 mmHg 81%
    14:00 +22°C° 0.6 mm 1 mps 645 mmHg 85%
    15:00 +20°C° 0.6 mm 0 mps 644 mmHg 89%
    16:00 +19°C° 0.6 mm 0 mps 644 mmHg 92%
    17:00 +18°C° 0.2 mm 0 mps 644 mmHg 94%
    18:00 +18°C° 0.2 mm 0 mps 644 mmHg 95%
    19:00 +17°C° 0.2 mm 0 mps 645 mmHg 96%
    20:00 +17°C° 0 mm 0 mps 645 mmHg 95%
    21:00 +17°C° 0 mm 0 mps 645 mmHg 95%
    22:00 +16°C° 0 mm 0 mps 646 mmHg 94%
    23:00 +16°C° 0 mm 0 mps 645 mmHg 94%

    Day after tomorrow, 14 December, Saturday

    Time Temperature Precipitation Wind Pressure Humidity
    00:00 +16°C° 0 mm 0 mps 645 mmHg 93%
    01:00 +18°C° 0 mm 1 mps 645 mmHg 93%
    02:00 +16°C° 0 mm 1 mps 645 mmHg 93%
    03:00 +16°C° 0 mm 1 mps 644 mmHg 93%
    04:00 +16°C° 0 mm 1 mps 644 mmHg 93%
    05:00 +16°C° 0 mm 0 mps 645 mmHg 92%
    06:00 +16°C° 0 mm 0 mps 646 mmHg 91%
    07:00 +17°C° 0 mm 0 mps 647 mmHg 89%
    08:00 +21°C° 0 mm 1 mps 647 mmHg 84%
    09:00 +22°C° 0 mm 1 mps 648 mmHg 78%
    10:00 +24°C° 0 mm 1 mps 649 mmHg 73%
    11:00 +23°C° 0.7 mm 1 mps 648 mmHg 77%
    12:00 +23°C° 0.7 mm 1 mps 647 mmHg 81%
    13:00 +23°C° 0.7 mm 1 mps 646 mmHg 86%
    14:00 +22°C° 0.6 mm 1 mps 646 mmHg 88%
    15:00 +20°C° 0.6 mm 0 mps 645 mmHg 90%
    16:00 +20°C° 0.6 mm 0 mps 645 mmHg 93%
    17:00 +19°C° 0.5 mm 0 mps 645 mmHg 93%
    18:00 +18°C° 0.5 mm 0 mps 645 mmHg 94%
    19:00 +19°C° 0.5 mm 1 mps 645 mmHg 95%
    20:00 +19°C° 0.4 mm 1 mps 646 mmHg 95%
    21:00 +18°C° 0.4 mm 1 mps 646 mmHg 94%
    22:00 +18°C° 0.4 mm 1 mps 646 mmHg 94%
    23:00 +18°C° 0 mm 1 mps 646 mmHg 94%

    15 December, Sunday

    Time Temperature Precipitation Wind Pressure Humidity
    00:00 +18°C° 0 mm 1 mps 646 mmHg 93%
    01:00 +16°C° 0 mm 1 mps 646 mmHg 93%
    02:00 +16°C° 0 mm 1 mps 645 mmHg 92%
    03:00 +16°C° 0 mm 1 mps 645 mmHg 92%
    04:00 +16°C° 0 mm 1 mps 645 mmHg 91%
    05:00 +18°C° 0 mm 1 mps 646 mmHg 90%
    06:00 +19°C° 0 mm 1 mps 647 mmHg 89%
    07:00 +19°C° 0 mm 1 mps 647 mmHg 88%
    08:00 +21°C° 0 mm 1 mps 648 mmHg 80%
    09:00 +23°C° 0 mm 1 mps 649 mmHg 72%
    10:00 +25°C° 0 mm 1 mps 650 mmHg 64%
    11:00 +24°C° 0.4 mm 1 mps 649 mmHg 71%
    12:00 +24°C° 0.4 mm 1 mps 648 mmHg 79%
    13:00 +23°C° 0.4 mm 1 mps 647 mmHg 86%
    14:00 +22°C° 0.8 mm 1 mps 646 mmHg 89%
    15:00 +20°C° 0.8 mm 0 mps 646 mmHg 92%
    16:00 +19°C° 0.8 mm 0 mps 645 mmHg 95%
    17:00 +18°C° 0.5 mm 0 mps 646 mmHg 95%
    18:00 +20°C° 0.5 mm 1 mps 646 mmHg 95%
    19:00 +19°C° 0.5 mm 1 mps 646 mmHg 95%
    20:00 +19°C° 0.2 mm 1 mps 646 mmHg 95%
    21:00 +18°C° 0.2 mm 1 mps 646 mmHg 94%
    22:00 +18°C° 0.2 mm 1 mps 647 mmHg 94%
    23:00 +16°C° 0 mm 1 mps 646 mmHg 93%

    16 December, Monday

    Time Temperature Precipitation Wind Pressure Humidity
    00:00 +16°C° 0 mm 1 mps 646 mmHg 92%
    01:00 +16°C° 0 mm 1 mps 645 mmHg 91%
    02:00 +16°C° 0 mm 1 mps 645 mmHg 88%
    03:00 +15°C° 0 mm 1 mps 645 mmHg 86%
    04:00 +15°C° 0 mm 1 mps 645 mmHg 84%
    05:00 +16°C° 0 mm 1 mps 646 mmHg 82%
    06:00 +18°C° 0 mm 1 mps 646 mmHg 80%
    07:00 +18°C° 0 mm 1 mps 647 mmHg 78%
    08:00 +21°C° 0 mm 1 mps 648 mmHg 71%
    09:00 +23°C° 0 mm 1 mps 648 mmHg 64%
    10:00 +25°C° 0 mm 1 mps 649 mmHg 58%
    11:00 +25°C° 0.1 mm 1 mps 649 mmHg 59%
    12:00 +26°C° 0.1 mm 1 mps 648 mmHg 60%
    13:00 +26°C° 0.1 mm 1 mps 647 mmHg 61%
    14:00 +25°C° 0.4 mm 1 mps 647 mmHg 70%
    15:00 +23°C° 0.4 mm 1 mps 646 mmHg 79%
    16:00 +22°C° 0.4 mm 1 mps 645 mmHg 88%
    17:00 +21°C° 0.3 mm 1 mps 645 mmHg 91%
    18:00 +20°C° 0.3 mm 1 mps 645 mmHg 93%
    19:00 +19°C° 0.3 mm 1 mps 645 mmHg 95%
    20:00 +19°C° 0 mm 1 mps 645 mmHg 94%
    21:00 +18°C° 0 mm 1 mps 646 mmHg 93%
    22:00 +18°C° 0 mm 1 mps 646 mmHg 93%
    23:00 +18°C° 0 mm 1 mps 646 mmHg 92%

    17 December, Tuesday

    Time Temperature Precipitation Wind Pressure Humidity
    00:00 +16°C° 0 mm 1 mps 645 mmHg 90%
    01:00 +16°C° 0 mm 1 mps 645 mmHg 89%
    02:00 +16°C° 0 mm 1 mps 645 mmHg 89%
    03:00 +16°C° 0 mm 1 mps 645 mmHg 89%
    04:00 +16°C° 0 mm 1 mps 645 mmHg 88%
    05:00 +18°C° 0 mm 1 mps 645 mmHg 87%
    06:00 +18°C° 0 mm 1 mps 646 mmHg 87%
    07:00 +19°C° 0 mm 1 mps 647 mmHg 86%
    08:00 +21°C° 0.1 mm 1 mps 647 mmHg 80%
    09:00 +23°C° 0.1 mm 1 mps 648 mmHg 74%
    10:00 +24°C° 0.1 mm 1 mps 648 mmHg 68%
    11:00 +24°C° 0.2 mm 1 mps 648 mmHg 68%
    12:00 +25°C° 0.2 mm 1 mps 647 mmHg 69%
    13:00 +25°C° 0.2 mm 1 mps 646 mmHg 70%
    14:00 +24°C° 0.6 mm 1 mps 646 mmHg 75%
    15:00 +23°C° 0.6 mm 1 mps 645 mmHg 80%
    16:00 +22°C° 0.6 mm 1 mps 644 mmHg 85%
    17:00 +21°C° 0.1 mm 1 mps 644 mmHg 88%
    18:00 +20°C° 0.1 mm 1 mps 644 mmHg 90%
    19:00 +19°C° 0.1 mm 1 mps 644 mmHg 93%
    20:00 +18°C° 0 mm 1 mps 645 mmHg 90%
    21:00 +17°C° 0 mm 2 mps 645 mmHg 88%
    22:00 +16°C° 0 mm 2 mps 645 mmHg 86%
    23:00 +16°C° 0 mm 2 mps 645 mmHg 84%
    Show more